Time,TemperatureF,DewpointF,PressureIn,WindDirection,WindDirectionDegrees,WindSpeedMPH,WindSpeedGustMPH,Humidity,HourlyPrecipIn,Conditions,Clouds,dailyrainin,SoftwareType,DateUTC
2014-02-08 00:00:00,31.2,26.6,30.31,NNE,30,1.0,5.0,83,0.00,,,0.00,VWS V15.00,2014-02-08 07:00:00,
2014-02-08 00:02:00,31.5,26.9,30.32,NNE,13,0.0,2.0,83,0.00,,,0.00,VWS V15.00,2014-02-08 07:02:00,
2014-02-08 00:07:00,31.5,26.9,30.31,NNE,15,0.0,2.0,83,0.00,,,0.00,VWS V15.00,2014-02-08 07:07:00,
2014-02-08 00:12:00,31.5,26.9,30.31,NE,39,0.0,2.0,83,0.00,,,0.00,VWS V15.00,2014-02-08 07:12:00,
2014-02-08 00:17:00,31.5,26.9,30.31,NE,39,1.0,2.0,83,0.00,,,0.00,VWS V15.00,2014-02-08 07:17:00,
2014-02-08 00:22:00,31.6,27.3,30.32,NNW,341,2.0,3.0,84,0.00,,,0.00,VWS V15.00,2014-02-08 07:22:00,
2014-02-08 00:27:00,31.5,27.2,30.32,North,354,3.0,5.0,84,0.00,,,0.00,VWS V15.00,2014-02-08 07:27:00,
2014-02-08 00:30:00,30.9,26.6,30.30,NE,53,1.0,3.0,84,0.00,,,0.00,VWS V15.00,2014-02-08 07:30:00,
2014-02-08 00:32:00,31.5,27.2,30.31,NNE,31,1.0,3.0,84,0.00,,,0.00,VWS V15.00,2014-02-08 07:32:00,
2014-02-08 00:37:00,31.4,27.1,30.31,NNE,30,1.0,4.0,84,0.00,,,0.00,VWS V15.00,2014-02-08 07:37:00,
2014-02-08 00:42:00,31.3,26.8,30.31,North,359,1.0,4.0,83,0.00,,,0.00,VWS V15.00,2014-02-08 07:42:00,
2014-02-08 00:47:00,31.3,26.8,30.31,NNE,15,2.0,5.0,83,0.00,,,0.00,VWS V15.00,2014-02-08 07:47:00,
2014-02-08 00:52:00,31.2,26.6,30.31,North,4,2.0,5.0,83,0.00,,,0.00,VWS V15.00,2014-02-08 07:52:00,
2014-02-08 00:57:00,31.2,26.6,30.31,North,6,2.0,5.0,83,0.00,,,0.00,VWS V15.00,2014-02-08 07:57:00,
2014-02-08 01:00:00,30.9,26.9,30.29,NNE,27,0.0,2.0,85,0.00,,,0.00,VWS V15.00,2014-02-08 08:00:00,
2014-02-08 01:02:00,31.2,26.9,30.31,North,354,2.0,2.0,84,0.00,,,0.00,VWS V15.00,2014-02-08 08:02:00,
2014-02-08 01:07:00,31.2,26.9,30.31,NNE,15,2.0,3.0,84,0.00,,,0.00,VWS V15.00,2014-02-08 08:07:00,
2014-02-08 01:12:00,31.2,26.9,30.31,NNW,346,0.0,3.0,84,0.00,,,0.00,VWS V15.00,2014-02-08 08:12:00,
2014-02-08 01:17:00,31.2,26.9,30.31,ENE,63,1.0,3.0,84,0.00,,,0.00,VWS V15.00,2014-02-08 08:17:00,
2014-02-08 01:22:00,31.1,26.8,30.31,North,8,1.0,3.0,84,0.00,,,0.00,VWS V15.00,2014-02-08 08:22:00,
2014-02-08 01:27:00,31.0,26.7,30.30,NE,53,0.0,3.0,84,0.00,,,0.00,VWS V15.00,2014-02-08 08:27:00,
2014-02-08 01:30:00,31.0,27.3,30.28,NE,53,1.0,2.0,86,0.00,,,0.00,VWS V15.00,2014-02-08 08:30:00,
2014-02-08 01:32:00,30.9,26.6,30.31,NNE,24,2.0,2.0,84,0.00,,,0.00,VWS V15.00,2014-02-08 08:32:00,
2014-02-08 01:37:00,30.8,26.5,30.31,North,8,1.0,2.0,84,0.00,,,0.00,VWS V15.00,2014-02-08 08:37:00,
2014-02-08 01:42:00,30.9,27.2,30.30,ENE,71,0.0,2.0,86,0.00,,,0.00,VWS V15.00,2014-02-08 08:42:00,
2014-02-08 01:47:00,30.8,26.8,30.29,ENE,78,0.0,2.0,85,0.00,,,0.00,VWS V15.00,2014-02-08 08:47:00,
2014-02-08 01:52:00,30.8,26.8,30.29,ENE,60,1.0,2.0,85,0.00,,,0.00,VWS V15.00,2014-02-08 08:52:00,
2014-02-08 01:57:00,30.8,26.8,30.29,North,9,2.0,2.0,85,0.00,,,0.00,VWS V15.00,2014-02-08 08:57:00,
2014-02-08 02:00:00,31.1,26.8,30.28,East,82,2.0,4.0,84,0.00,,,0.00,VWS V15.00,2014-02-08 09:00:00,
2014-02-08 02:02:00,30.9,26.9,30.29,NNE,25,0.0,1.0,85,0.00,,,0.00,VWS V15.00,2014-02-08 09:02:00,
2014-02-08 02:07:00,30.9,26.9,30.29,ENE,63,2.0,2.0,85,0.00,,,0.00,VWS V15.00,2014-02-08 09:07:00,
2014-02-08 02:12:00,30.9,26.9,30.28,ENE,59,0.0,2.0,85,0.00,,,0.00,VWS V15.00,2014-02-08 09:12:00,
2014-02-08 02:17:00,30.9,26.9,30.27,ENE,71,0.0,2.0,85,0.00,,,0.00,VWS V15.00,2014-02-08 09:17:00,
2014-02-08 02:22:00,31.0,27.0,30.28,NE,51,1.0,2.0,85,0.00,,,0.00,VWS V15.00,2014-02-08 09:22:00,
2014-02-08 02:27:00,31.0,27.0,30.29,NE,51,0.0,2.0,85,0.00,,,0.00,VWS V15.00,2014-02-08 09:27:00,
2014-02-08 02:30:00,31.1,27.7,30.27,East,90,0.0,4.0,87,0.00,,,0.00,VWS V15.00,2014-02-08 09:30:00,
2014-02-08 02:32:00,31.0,27.0,30.28,NE,52,1.0,1.0,85,0.00,,,0.00,VWS V15.00,2014-02-08 09:32:00,
2014-02-08 02:37:00,31.0,27.0,30.29,NE,51,0.0,1.0,85,0.00,,,0.00,VWS V15.00,2014-02-08 09:37:00,
2014-02-08 02:42:00,31.0,27.0,30.29,NE,51,0.0,1.0,85,0.00,,,0.00,VWS V15.00,2014-02-08 09:42:00,
2014-02-08 02:47:00,31.1,27.1,30.28,NE,50,0.0,2.0,85,0.00,,,0.00,VWS V15.00,2014-02-08 09:47:00,
2014-02-08 02:52:00,31.1,27.1,30.28,East,86,1.0,4.0,85,0.00,,,0.00,VWS V15.00,2014-02-08 09:52:00,
2014-02-08 02:57:00,31.1,27.1,30.28,ENE,77,0.0,4.0,85,0.00,,,0.00,VWS V15.00,2014-02-08 09:57:00,
2014-02-08 03:00:00,30.4,27.5,30.27,East,91,0.0,1.0,89,0.00,,,0.00,VWS V15.00,2014-02-08 10:00:00,
2014-02-08 03:02:00,31.1,26.8,30.28,ENE,78,3.0,4.0,84,0.00,,,0.00,VWS V15.00,2014-02-08 10:02:00,
2014-02-08 03:07:00,31.1,26.8,30.28,East,98,1.0,4.0,84,0.00,,,0.00,VWS V15.00,2014-02-08 10:07:00,
2014-02-08 03:12:00,31.1,27.1,30.28,East,98,0.0,4.0,85,0.00,,,0.00,VWS V15.00,2014-02-08 10:12:00,
2014-02-08 03:17:00,31.1,27.1,30.28,East,87,0.0,4.0,85,0.00,,,0.00,VWS V15.00,2014-02-08 10:17:00,
2014-02-08 03:22:00,31.1,27.4,30.28,East,90,0.0,4.0,86,0.00,,,0.00,VWS V15.00,2014-02-08 10:22:00,
2014-02-08 03:27:00,31.1,27.7,30.28,East,90,0.0,4.0,87,0.00,,,0.00,VWS V15.00,2014-02-08 10:27:00,
2014-02-08 03:30:00,30.5,27.6,30.27,East,91,0.0,1.0,89,0.00,,,0.00,VWS V15.00,2014-02-08 10:30:00,
2014-02-08 03:32:00,31.1,28.0,30.27,East,91,0.0,0.0,88,0.00,,,0.00,VWS V15.00,2014-02-08 10:32:00,
2014-02-08 03:37:00,30.9,27.8,30.27,East,91,0.0,1.0,88,0.00,,,0.00,VWS V15.00,2014-02-08 10:37:00,
2014-02-08 03:42:00,30.8,28.0,30.26,East,90,0.0,1.0,89,0.00,,,0.00,VWS V15.00,2014-02-08 10:42:00,
2014-02-08 03:47:00,30.7,27.9,30.26,East,90,0.0,1.0,89,0.00,,,0.00,VWS V15.00,2014-02-08 10:47:00,
2014-02-08 03:52:00,30.5,27.6,30.27,East,90,0.0,1.0,89,0.00,,,0.00,VWS V15.00,2014-02-08 10:52:00,
2014-02-08 03:57:00,30.5,27.6,30.27,East,90,0.0,1.0,89,0.00,,,0.00,VWS V15.00,2014-02-08 10:57:00,
2014-02-08 04:00:00,30.0,27.7,30.26,NE,51,0.0,1.0,91,0.00,,,0.00,VWS V15.00,2014-02-08 11:00:00,
2014-02-08 04:02:00,30.4,27.8,30.27,East,90,0.0,0.0,90,0.00,,,0.00,VWS V15.00,2014-02-08 11:02:00,
2014-02-08 04:07:00,30.5,27.9,30.26,East,90,0.0,1.0,90,0.00,,,0.00,VWS V15.00,2014-02-08 11:07:00,
2014-02-08 04:12:00,30.5,27.9,30.26,East,91,0.0,1.0,90,0.00,,,0.00,VWS V15.00,2014-02-08 11:12:00,
2014-02-08 04:17:00,30.6,27.8,30.26,East,91,0.0,1.0,89,0.00,,,0.00,VWS V15.00,2014-02-08 11:17:00,
2014-02-08 04:22:00,30.6,27.8,30.26,East,92,0.0,1.0,89,0.00,,,0.00,VWS V15.00,2014-02-08 11:22:00,
2014-02-08 04:27:00,30.6,27.8,30.26,East,91,0.0,1.0,89,0.00,,,0.00,VWS V15.00,2014-02-08 11:27:00,
2014-02-08 04:30:00,29.5,27.7,30.27,ESE,107,0.0,1.0,93,0.00,,,0.00,VWS V15.00,2014-02-08 11:30:00,
2014-02-08 04:32:00,30.5,27.6,30.26,East,91,0.0,0.0,89,0.00,,,0.00,VWS V15.00,2014-02-08 11:32:00,
2014-02-08 04:37:00,30.3,27.5,30.26,East,91,0.0,1.0,89,0.00,,,0.00,VWS V15.00,2014-02-08 11:37:00,
2014-02-08 04:42:00,30.2,27.6,30.26,East,90,1.0,1.0,90,0.00,,,0.00,VWS V15.00,2014-02-08 11:42:00,
2014-02-08 04:47:00,30.2,27.6,30.27,NE,48,0.0,1.0,90,0.00,,,0.00,VWS V15.00,2014-02-08 11:47:00,
2014-02-08 04:52:00,30.2,27.9,30.26,NE,51,0.0,1.0,91,0.00,,,0.00,VWS V15.00,2014-02-08 11:52:00,
2014-02-08 04:57:00,30.0,27.7,30.26,NE,51,0.0,1.0,91,0.00,,,0.00,VWS V15.00,2014-02-08 11:57:00,
2014-02-08 05:00:00,30.2,28.2,30.28,SE,124,1.0,1.0,92,0.00,,,0.00,VWS V15.00,2014-02-08 12:00:00,
2014-02-08 05:02:00,30.0,27.7,30.25,ESE,107,0.0,1.0,91,0.00,,,0.00,VWS V15.00,2014-02-08 12:02:00,
2014-02-08 05:07:00,29.9,27.6,30.26,ESE,108,0.0,1.0,91,0.00,,,0.00,VWS V15.00,2014-02-08 12:07:00,
2014-02-08 05:12:00,29.7,27.7,30.26,ESE,107,0.0,1.0,92,0.00,,,0.00,VWS V15.00,2014-02-08 12:12:00,
2014-02-08 05:17:00,29.6,27.6,30.26,ESE,107,0.0,1.0,92,0.00,,,0.00,VWS V15.00,2014-02-08 12:17:00,
2014-02-08 05:22:00,29.5,27.5,30.26,ESE,107,0.0,1.0,92,0.00,,,0.00,VWS V15.00,2014-02-08 12:22:00,
2014-02-08 05:27:00,29.4,27.4,30.27,ESE,107,0.0,1.0,92,0.00,,,0.00,VWS V15.00,2014-02-08 12:27:00,
2014-02-08 05:30:00,31.4,29.1,30.29,SSE,156,0.0,1.0,91,0.00,,,0.00,VWS V15.00,2014-02-08 12:30:00,
2014-02-08 05:32:00,29.5,27.7,30.27,ESE,108,0.0,0.0,93,0.00,,,0.00,VWS V15.00,2014-02-08 12:32:00,
2014-02-08 05:37:00,29.6,27.8,30.27,ESE,108,0.0,0.0,93,0.00,,,0.00,VWS V15.00,2014-02-08 12:37:00,
2014-02-08 05:42:00,29.6,27.8,30.28,ESE,107,0.0,0.0,93,0.00,,,0.00,VWS V15.00,2014-02-08 12:42:00,
2014-02-08 05:47:00,29.8,28.0,30.28,SE,124,0.0,1.0,93,0.00,,,0.00,VWS V15.00,2014-02-08 12:47:00,
2014-02-08 05:51:00,29.8,28.0,30.29,SE,124,0.0,1.0,93,0.00,,,0.00,VWS V15.00,2014-02-08 12:51:00,
2014-02-08 05:56:00,30.0,28.0,30.29,SE,124,0.0,1.0,92,0.00,,,0.00,VWS V15.00,2014-02-08 12:56:00,
2014-02-08 06:00:00,33.0,29.8,30.29,SW,214,0.0,2.0,88,0.00,,,0.00,VWS V15.00,2014-02-08 13:00:00,
2014-02-08 06:01:00,30.3,28.3,30.28,SE,124,0.0,1.0,92,0.00,,,0.00,VWS V15.00,2014-02-08 13:01:00,
2014-02-08 06:06:00,30.5,28.5,30.28,SE,124,0.0,1.0,92,0.00,,,0.00,VWS V15.00,2014-02-08 13:06:00,
2014-02-08 06:11:00,30.7,28.7,30.28,SE,124,0.0,1.0,92,0.00,,,0.00,VWS V15.00,2014-02-08 13:11:00,
2014-02-08 06:16:00,30.9,28.6,30.28,SE,124,1.0,1.0,91,0.00,,,0.00,VWS V15.00,2014-02-08 13:16:00,
2014-02-08 06:21:00,31.1,28.8,30.29,SE,127,0.0,1.0,91,0.00,,,0.00,VWS V15.00,2014-02-08 13:21:00,
2014-02-08 06:26:00,31.3,29.0,30.29,SSE,155,0.0,1.0,91,0.00,,,0.00,VWS V15.00,2014-02-08 13:26:00,
2014-02-08 06:30:00,34.5,30.5,30.30,SE,127,2.0,4.0,85,0.00,,,0.00,VWS V15.00,2014-02-08 13:30:00,
2014-02-08 06:31:00,31.5,29.2,30.29,SSE,156,0.0,0.0,91,0.00,,,0.00,VWS V15.00,2014-02-08 13:31:00,
2014-02-08 06:36:00,31.7,29.1,30.29,SE,138,0.0,1.0,90,0.00,,,0.00,VWS V15.00,2014-02-08 13:36:00,
2014-02-08 06:41:00,31.9,29.3,30.28,SE,145,1.0,2.0,90,0.00,,,0.00,VWS V15.00,2014-02-08 13:41:00,
2014-02-08 06:46:00,32.2,29.6,30.28,SE,136,0.0,2.0,90,0.00,,,0.00,VWS V15.00,2014-02-08 13:46:00,
2014-02-08 06:51:00,32.5,29.6,30.28,SE,139,0.0,2.0,89,0.00,,,0.00,VWS V15.00,2014-02-08 13:51:00,
2014-02-08 06:56:00,32.8,29.9,30.29,SE,146,0.0,2.0,89,0.00,,,0.00,VWS V15.00,2014-02-08 13:56:00,
2014-02-08 07:00:00,35.5,31.1,30.30,SE,130,0.0,2.0,84,0.00,,,0.00,VWS V15.00,2014-02-08 14:00:00,
2014-02-08 07:01:00,33.1,29.9,30.29,SE,138,1.0,1.0,88,0.00,,,0.00,VWS V15.00,2014-02-08 14:01:00,
2014-02-08 07:06:00,33.4,30.0,30.29,SE,132,1.0,4.0,87,0.00,,,0.00,VWS V15.00,2014-02-08 14:06:00,
2014-02-08 07:11:00,33.8,30.4,30.29,SSE,153,0.0,4.0,87,0.00,,,0.00,VWS V15.00,2014-02-08 14:11:00,
2014-02-08 07:16:00,34.1,30.6,30.30,SE,138,0.0,4.0,87,0.00,,,0.00,VWS V15.00,2014-02-08 14:16:00,
2014-02-08 07:21:00,34.3,30.3,30.30,SE,145,2.0,4.0,85,0.00,,,0.00,VWS V15.00,2014-02-08 14:21:00,
2014-02-08 07:26:00,34.4,30.4,30.30,SE,127,0.0,4.0,85,0.00,,,0.00,VWS V15.00,2014-02-08 14:26:00,
2014-02-08 07:30:00,37.0,31.1,30.31,WNW,288,1.0,2.0,79,0.00,,,0.00,VWS V15.00,2014-02-08 14:30:00,
2014-02-08 07:31:00,34.5,30.2,30.30,SE,137,1.0,2.0,84,0.00,,,0.00,VWS V15.00,2014-02-08 14:31:00,
2014-02-08 07:36:00,34.7,30.7,30.30,ESE,123,0.0,2.0,85,0.00,,,0.00,VWS V15.00,2014-02-08 14:36:00,
2014-02-08 07:41:00,34.9,30.6,30.30,ESE,118,0.0,2.0,84,0.00,,,0.00,VWS V15.00,2014-02-08 14:41:00,
2014-02-08 07:46:00,35.0,30.4,30.31,ESE,115,0.0,2.0,83,0.00,,,0.00,VWS V15.00,2014-02-08 14:46:00,
2014-02-08 07:51:00,35.1,30.5,30.31,East,92,0.0,2.0,83,0.00,,,0.00,VWS V15.00,2014-02-08 14:51:00,
2014-02-08 07:56:00,35.3,30.7,30.30,East,95,0.0,2.0,83,0.00,,,0.00,VWS V15.00,2014-02-08 14:56:00,
2014-02-08 08:00:00,38.5,32.6,30.30,SSE,158,0.0,2.0,79,0.00,,,0.00,VWS V15.00,2014-02-08 15:00:00,
2014-02-08 08:01:00,35.6,31.2,30.30,SE,129,0.0,0.0,84,0.00,,,0.00,VWS V15.00,2014-02-08 15:01:00,
2014-02-08 08:06:00,35.8,31.1,30.30,East,79,0.0,2.0,83,0.00,,,0.00,VWS V15.00,2014-02-08 15:06:00,
2014-02-08 08:11:00,36.1,31.7,30.30,SE,141,0.0,2.0,84,0.00,,,0.00,VWS V15.00,2014-02-08 15:11:00,
2014-02-08 08:16:00,36.5,31.5,30.30,SE,125,0.0,2.0,82,0.00,,,0.00,VWS V15.00,2014-02-08 15:16:00,
2014-02-08 08:21:00,36.7,31.1,30.30,South,184,0.0,2.0,80,0.00,,,0.00,VWS V15.00,2014-02-08 15:21:00,
2014-02-08 08:26:00,36.9,31.0,30.30,SSW,200,0.0,2.0,79,0.00,,,0.00,VWS V15.00,2014-02-08 15:26:00,
2014-02-08 08:30:00,40.2,31.9,30.29,ESE,117,1.0,2.0,72,0.00,,,0.00,VWS V15.00,2014-02-08 15:30:00,
2014-02-08 08:31:00,37.0,31.1,30.31,WNW,288,1.0,1.0,79,0.00,,,0.00,VWS V15.00,2014-02-08 15:31:00,
2014-02-08 08:36:00,37.2,31.6,30.31,SW,231,1.0,1.0,80,0.00,,,0.00,VWS V15.00,2014-02-08 15:36:00,
2014-02-08 08:41:00,37.5,31.9,30.31,SW,228,1.0,1.0,80,0.00,,,0.00,VWS V15.00,2014-02-08 15:41:00,
2014-02-08 08:46:00,37.7,31.5,30.31,SW,228,0.0,1.0,78,0.00,,,0.00,VWS V15.00,2014-02-08 15:46:00,
2014-02-08 08:51:00,37.9,32.0,30.31,SW,217,1.0,2.0,79,0.00,,,0.00,VWS V15.00,2014-02-08 15:51:00,
2014-02-08 08:56:00,38.1,31.9,30.30,SSE,158,0.0,2.0,78,0.00,,,0.00,VWS V15.00,2014-02-08 15:56:00,
2014-02-08 09:00:00,41.0,32.0,30.28,NW,319,1.0,4.0,70,0.00,,,0.00,VWS V15.00,2014-02-08 16:00:00,
2014-02-08 09:01:00,38.5,32.2,30.30,SSE,158,0.0,0.0,78,0.00,,,0.00,VWS V15.00,2014-02-08 16:01:00,
2014-02-08 09:06:00,38.9,31.7,30.30,SW,226,0.0,1.0,75,0.00,,,0.00,VWS V15.00,2014-02-08 16:06:00,
2014-02-08 09:11:00,39.1,32.2,30.30,SE,131,0.0,1.0,76,0.00,,,0.00,VWS V15.00,2014-02-08 16:11:00,
2014-02-08 09:16:00,39.7,32.1,30.30,SE,131,0.0,1.0,74,0.00,,,0.00,VWS V15.00,2014-02-08 16:16:00,
2014-02-08 09:21:00,40.2,32.2,30.30,WSW,242,1.0,1.0,73,0.00,,,0.00,VWS V15.00,2014-02-08 16:21:00,
2014-02-08 09:26:00,40.1,31.5,30.30,South,186,0.0,2.0,71,0.00,,,0.00,VWS V15.00,2014-02-08 16:26:00,
2014-02-08 09:30:00,42.2,33.1,30.28,NNW,333,3.0,5.0,70,0.00,,,0.00,VWS V15.00,2014-02-08 16:30:00,
2014-02-08 09:31:00,40.2,31.6,30.29,ESE,115,0.0,1.0,71,0.00,,,0.00,VWS V15.00,2014-02-08 16:31:00,
2014-02-08 09:36:00,40.4,31.8,30.30,North,354,1.0,1.0,71,0.00,,,0.00,VWS V15.00,2014-02-08 16:36:00,
2014-02-08 09:41:00,40.4,31.8,30.29,North,349,2.0,3.0,71,0.00,,,0.00,VWS V15.00,2014-02-08 16:41:00,
2014-02-08 09:46:00,40.4,31.8,30.29,North,5,0.0,3.0,71,0.00,,,0.00,VWS V15.00,2014-02-08 16:46:00,
2014-02-08 09:51:00,40.6,32.3,30.29,North,356,2.0,4.0,72,0.00,,,0.00,VWS V15.00,2014-02-08 16:51:00,
2014-02-08 09:56:00,40.7,31.7,30.28,NNE,22,0.0,4.0,70,0.00,,,0.00,VWS V15.00,2014-02-08 16:56:00,
2014-02-08 10:00:00,41.5,34.2,30.27,NNW,328,3.0,9.0,75,0.00,,,0.00,VWS V15.00,2014-02-08 17:00:00,
2014-02-08 10:01:00,41.1,32.1,30.28,West,277,0.0,3.0,70,0.00,,,0.00,VWS V15.00,2014-02-08 17:01:00,
2014-02-08 10:06:00,41.2,31.8,30.28,NNE,29,1.0,3.0,69,0.00,,,0.00,VWS V15.00,2014-02-08 17:06:00,
2014-02-08 10:11:00,41.2,32.5,30.28,NNE,30,1.0,3.0,71,0.00,,,0.00,VWS V15.00,2014-02-08 17:11:00,
2014-02-08 10:16:00,41.6,32.6,30.28,NNE,24,1.0,3.0,70,0.00,,,0.00,VWS V15.00,2014-02-08 17:16:00,
2014-02-08 10:21:00,41.8,32.8,30.28,NNE,24,0.0,3.0,70,0.00,,,0.00,VWS V15.00,2014-02-08 17:21:00,
2014-02-08 10:26:00,42.2,33.1,30.28,NNW,338,3.0,3.0,70,0.00,,,0.00,VWS V15.00,2014-02-08 17:26:00,
2014-02-08 10:30:00,42.2,34.9,30.25,NNW,338,4.0,8.0,75,0.00,,,0.00,VWS V15.00,2014-02-08 17:30:00,
2014-02-08 10:31:00,42.1,33.0,30.28,North,360,5.0,5.0,70,0.00,,,0.00,VWS V15.00,2014-02-08 17:31:00,
2014-02-08 10:36:00,42.0,33.6,30.28,NNW,330,2.0,5.0,72,0.00,,,0.00,VWS V15.00,2014-02-08 17:36:00,
2014-02-08 10:41:00,41.9,33.5,30.27,NW,314,1.0,6.0,72,0.00,,,0.00,VWS V15.00,2014-02-08 17:41:00,
2014-02-08 10:46:00,41.9,34.2,30.28,NNE,27,3.0,6.0,74,0.00,,,0.00,VWS V15.00,2014-02-08 17:46:00,
2014-02-08 10:51:00,41.6,33.9,30.28,NE,36,5.0,9.0,74,0.00,,,0.00,VWS V15.00,2014-02-08 17:51:00,
2014-02-08 10:56:00,41.3,34.0,30.27,NNW,335,2.0,9.0,75,0.00,,,0.00,VWS V15.00,2014-02-08 17:56:00,
2014-02-08 11:00:00,44.4,36.3,30.24,NW,313,2.0,8.0,73,0.00,,,0.00,VWS V15.00,2014-02-08 18:00:00,
2014-02-08 11:01:00,41.5,34.5,30.27,NNW,343,3.0,3.0,76,0.00,,,0.00,VWS V15.00,2014-02-08 18:01:00,
2014-02-08 11:06:00,41.6,34.6,30.26,NW,320,3.0,8.0,76,0.00,,,0.00,VWS V15.00,2014-02-08 18:06:00,
2014-02-08 11:11:00,41.8,34.8,30.26,NE,36,1.0,8.0,76,0.00,,,0.00,VWS V15.00,2014-02-08 18:11:00,
2014-02-08 11:15:00,42.0,34.7,30.26,NNW,334,1.0,8.0,75,0.00,,,0.00,VWS V15.00,2014-02-08 18:15:00,
2014-02-08 11:20:00,42.0,34.7,30.26,NE,40,4.0,8.0,75,0.00,,,0.00,VWS V15.00,2014-02-08 18:20:00,
2014-02-08 11:25:00,42.2,34.9,30.25,North,356,5.0,8.0,75,0.00,,,0.00,VWS V15.00,2014-02-08 18:25:00,
2014-02-08 11:30:00,42.3,35.0,30.25,NNW,330,3.0,5.0,75,0.00,,,0.00,VWS V15.00,2014-02-08 18:30:00,
2014-02-08 11:35:00,42.4,35.0,30.25,WNW,294,4.0,7.0,75,0.00,,,0.00,VWS V15.00,2014-02-08 18:35:00,
2014-02-08 11:40:00,42.5,35.2,30.25,NNW,340,0.0,7.0,75,0.00,,,0.00,VWS V15.00,2014-02-08 18:40:00,
2014-02-08 11:45:00,42.8,35.4,30.25,NNW,329,5.0,7.0,75,0.00,,,0.00,VWS V15.00,2014-02-08 18:45:00,
2014-02-08 11:50:00,42.9,35.9,30.25,NNE,13,3.0,7.0,76,0.00,,,0.00,VWS V15.00,2014-02-08 18:50:00,
2014-02-08 11:55:00,43.7,36.3,30.24,NE,54,2.0,8.0,75,0.00,,,0.00,VWS V15.00,2014-02-08 18:55:00,
2014-02-08 12:00:00,44.4,36.0,30.24,NW,326,2.0,5.0,72,0.00,,,0.00,VWS V15.00,2014-02-08 19:00:00,
2014-02-08 12:05:00,44.6,36.5,30.23,WNW,282,3.0,6.0,73,0.00,,,0.00,VWS V15.00,2014-02-08 19:05:00,
2014-02-08 12:10:00,44.9,36.8,30.23,NW,315,2.0,6.0,73,0.00,,,0.00,VWS V15.00,2014-02-08 19:10:00,
2014-02-08 12:15:00,45.0,36.5,30.22,NNW,330,3.0,6.0,72,0.00,,,0.00,VWS V15.00,2014-02-08 19:15:00,
2014-02-08 12:19:00,45.0,36.9,30.22,NNW,347,3.0,6.0,73,0.00,,,0.00,VWS V15.00,2014-02-08 19:19:00,
2014-02-08 12:24:00,45.2,36.7,30.22,SE,129,0.0,8.0,72,0.00,,,0.00,VWS V15.00,2014-02-08 19:24:00,
2014-02-08 12:29:00,46.1,36.9,30.22,East,81,4.0,8.0,70,0.00,,,0.00,VWS V15.00,2014-02-08 19:29:00,
2014-02-08 12:30:00,48.4,38.0,30.20,NNW,337,3.0,5.0,67,0.00,,,0.00,VWS V15.00,2014-02-08 19:30:00,
2014-02-08 12:34:00,46.7,37.5,30.21,NNW,335,4.0,6.0,70,0.00,,,0.00,VWS V15.00,2014-02-08 19:34:00,
2014-02-08 12:39:00,47.0,37.4,30.21,West,278,2.0,6.0,69,0.00,,,0.00,VWS V15.00,2014-02-08 19:39:00,
2014-02-08 12:44:00,46.6,37.0,30.21,South,181,0.0,6.0,69,0.00,,,0.00,VWS V15.00,2014-02-08 19:44:00,
2014-02-08 12:49:00,46.8,36.8,30.21,NNW,342,3.0,6.0,68,0.00,,,0.00,VWS V15.00,2014-02-08 19:49:00,
2014-02-08 12:54:00,46.9,37.3,30.21,NE,55,3.0,6.0,69,0.00,,,0.00,VWS V15.00,2014-02-08 19:54:00,
2014-02-08 12:59:00,47.2,37.6,30.20,East,91,1.0,6.0,69,0.00,,,0.00,VWS V15.00,2014-02-08 19:59:00,
2014-02-08 13:00:00,50.3,38.2,30.19,NW,316,1.0,7.0,63,0.00,,,0.00,VWS V15.00,2014-02-08 20:00:00,
2014-02-08 13:03:00,47.2,37.2,30.20,NE,53,3.0,5.0,68,0.00,,,0.00,VWS V15.00,2014-02-08 20:03:00,
2014-02-08 13:08:00,47.3,37.3,30.20,South,169,0.0,5.0,68,0.00,,,0.00,VWS V15.00,2014-02-08 20:08:00,
2014-02-08 13:13:00,47.3,37.3,30.20,North,8,0.0,5.0,68,0.00,,,0.00,VWS V15.00,2014-02-08 20:13:00,
2014-02-08 13:18:00,47.8,37.4,30.20,NW,315,2.0,5.0,67,0.00,,,0.00,VWS V15.00,2014-02-08 20:18:00,
2014-02-08 13:23:00,47.8,37.8,30.20,NNE,23,3.0,5.0,68,0.00,,,0.00,VWS V15.00,2014-02-08 20:23:00,
2014-02-08 13:28:00,48.3,37.9,30.20,NNE,31,2.0,5.0,67,0.00,,,0.00,VWS V15.00,2014-02-08 20:28:00,
2014-02-08 13:30:00,51.5,38.9,30.19,North,6,1.0,5.0,62,0.00,,,0.00,VWS V15.00,2014-02-08 20:30:00,
2014-02-08 13:33:00,48.0,37.6,30.20,ESE,107,0.0,4.0,67,0.00,,,0.00,VWS V15.00,2014-02-08 20:33:00,
2014-02-08 13:38:00,48.3,38.2,30.20,ENE,74,2.0,4.0,68,0.00,,,0.00,VWS V15.00,2014-02-08 20:38:00,
2014-02-08 13:43:00,48.3,37.9,30.19,ESE,113,0.0,4.0,67,0.00,,,0.00,VWS V15.00,2014-02-08 20:43:00,
2014-02-08 13:48:00,49.8,38.9,30.19,ESE,107,2.0,4.0,66,0.00,,,0.00,VWS V15.00,2014-02-08 20:48:00,
2014-02-08 13:53:00,49.9,38.2,30.19,NW,321,4.0,7.0,64,0.00,,,0.00,VWS V15.00,2014-02-08 20:53:00,
2014-02-08 13:58:00,50.3,38.6,30.19,WNW,290,3.0,7.0,64,0.00,,,0.00,VWS V15.00,2014-02-08 20:58:00,
2014-02-08 14:00:00,50.0,37.5,30.19,NW,323,3.0,6.0,62,0.00,,,0.00,VWS V15.00,2014-02-08 21:00:00,
2014-02-08 14:03:00,50.0,37.9,30.19,WNW,285,0.0,5.0,63,0.00,,,0.00,VWS V15.00,2014-02-08 21:03:00,
2014-02-08 14:08:00,50.4,38.3,30.19,South,179,1.0,5.0,63,0.00,,,0.00,VWS V15.00,2014-02-08 21:08:00,
2014-02-08 14:13:00,51.6,38.2,30.18,WNW,295,2.0,5.0,60,0.00,,,0.00,VWS V15.00,2014-02-08 21:13:00,
2014-02-08 14:18:00,51.4,38.4,30.19,North,5,2.0,5.0,61,0.00,,,0.00,VWS V15.00,2014-02-08 21:18:00,
2014-02-08 14:23:00,51.2,38.6,30.19,ENE,65,2.0,5.0,62,0.00,,,0.00,VWS V15.00,2014-02-08 21:23:00,
2014-02-08 14:28:00,51.3,38.7,30.19,NNW,346,1.0,5.0,62,0.00,,,0.00,VWS V15.00,2014-02-08 21:28:00,
2014-02-08 14:30:00,48.6,37.8,30.18,NNW,328,0.0,3.0,66,0.00,,,0.00,VWS V15.00,2014-02-08 21:30:00,
2014-02-08 14:33:00,51.9,38.5,30.19,ESE,114,1.0,3.0,60,0.00,,,0.00,VWS V15.00,2014-02-08 21:33:00,
2014-02-08 14:38:00,51.1,37.7,30.19,WNW,293,1.0,6.0,60,0.00,,,0.00,VWS V15.00,2014-02-08 21:38:00,
2014-02-08 14:43:00,50.7,38.2,30.19,West,278,1.0,6.0,62,0.00,,,0.00,VWS V15.00,2014-02-08 21:43:00,
2014-02-08 14:48:00,51.6,38.2,30.20,NNW,330,2.0,6.0,60,0.00,,,0.00,VWS V15.00,2014-02-08 21:48:00,
2014-02-08 14:53:00,50.6,37.7,30.19,NNE,27,1.0,6.0,61,0.00,,,0.00,VWS V15.00,2014-02-08 21:53:00,
2014-02-08 14:58:00,50.2,37.7,30.19,NNW,333,0.0,6.0,62,0.00,,,0.00,VWS V15.00,2014-02-08 21:58:00,
2014-02-08 15:00:00,46.4,37.9,30.19,ESE,102,0.0,2.0,72,0.00,,,0.00,VWS V15.00,2014-02-08 22:00:00,
2014-02-08 15:03:00,49.6,37.5,30.19,NNE,27,1.0,3.0,63,0.00,,,0.00,VWS V15.00,2014-02-08 22:03:00,
2014-02-08 15:08:00,49.0,37.4,30.19,NNW,338,0.0,3.0,64,0.00,,,0.00,VWS V15.00,2014-02-08 22:08:00,
2014-02-08 15:13:00,49.1,37.5,30.19,West,265,0.0,3.0,64,0.00,,,0.00,VWS V15.00,2014-02-08 22:13:00,
2014-02-08 15:18:00,48.7,37.5,30.18,WNW,302,0.0,3.0,65,0.00,,,0.00,VWS V15.00,2014-02-08 22:18:00,
2014-02-08 15:23:00,48.7,37.5,30.18,North,357,1.0,3.0,65,0.00,,,0.00,VWS V15.00,2014-02-08 22:23:00,
2014-02-08 15:28:00,48.5,37.3,30.18,NNW,329,0.0,3.0,65,0.00,,,0.00,VWS V15.00,2014-02-08 22:28:00,
2014-02-08 15:30:00,44.6,37.2,30.19,East,83,1.0,2.0,75,0.00,,,0.00,VWS V15.00,2014-02-08 22:30:00,
2014-02-08 15:33:00,48.6,37.4,30.18,NNW,329,0.0,0.0,65,0.00,,,0.00,VWS V15.00,2014-02-08 22:33:00,
2014-02-08 15:38:00,48.5,38.1,30.19,NNW,329,0.0,1.0,67,0.00,,,0.00,VWS V15.00,2014-02-08 22:38:00,
2014-02-08 15:43:00,48.3,39.0,30.18,NNW,335,0.0,1.0,70,0.00,,,0.00,VWS V15.00,2014-02-08 22:43:00,
2014-02-08 15:48:00,47.6,38.7,30.18,East,82,0.0,1.0,71,0.00,,,0.00,VWS V15.00,2014-02-08 22:48:00,
2014-02-08 15:53:00,47.1,38.5,30.19,East,82,0.0,1.0,72,0.00,,,0.00,VWS V15.00,2014-02-08 22:53:00,
2014-02-08 15:58:00,46.6,37.7,30.19,East,101,1.0,2.0,71,0.00,,,0.00,VWS V15.00,2014-02-08 22:58:00,
2014-02-08 16:00:00,43.1,37.0,30.18,East,97,0.0,2.0,79,0.00,,,0.00,VWS V15.00,2014-02-08 23:00:00,
2014-02-08 16:03:00,46.3,37.4,30.19,East,98,1.0,1.0,71,0.00,,,0.00,VWS V15.00,2014-02-08 23:03:00,
2014-02-08 16:08:00,46.1,37.9,30.19,East,96,0.0,1.0,73,0.00,,,0.00,VWS V15.00,2014-02-08 23:08:00,
2014-02-08 16:13:00,45.8,38.0,30.19,East,96,0.0,1.0,74,0.00,,,0.00,VWS V15.00,2014-02-08 23:13:00,
2014-02-08 16:18:00,45.4,38.0,30.19,East,94,0.0,1.0,75,0.00,,,0.00,VWS V15.00,2014-02-08 23:18:00,
2014-02-08 16:23:00,45.0,37.9,30.18,East,95,1.0,1.0,76,0.00,,,0.00,VWS V15.00,2014-02-08 23:23:00,
2014-02-08 16:28:00,44.7,37.6,30.19,East,97,0.0,2.0,76,0.00,,,0.00,VWS V15.00,2014-02-08 23:28:00,
2014-02-08 16:30:00,42.7,37.0,30.19,East,101,0.0,1.0,80,0.00,,,0.00,VWS V15.00,2014-02-08 23:30:00,
2014-02-08 16:33:00,44.4,37.0,30.19,East,97,1.0,2.0,75,0.00,,,0.00,VWS V15.00,2014-02-08 23:33:00,
2014-02-08 16:38:00,44.1,37.4,30.18,East,97,0.0,2.0,77,0.00,,,0.00,VWS V15.00,2014-02-08 23:38:00,
2014-02-08 16:43:00,43.8,37.4,30.18,East,97,0.0,2.0,78,0.00,,,0.00,VWS V15.00,2014-02-08 23:43:00,
2014-02-08 16:48:00,43.4,37.3,30.18,East,97,0.0,2.0,79,0.00,,,0.00,VWS V15.00,2014-02-08 23:48:00,
2014-02-08 16:53:00,43.2,36.8,30.19,East,97,0.0,2.0,78,0.00,,,0.00,VWS V15.00,2014-02-08 23:53:00,
2014-02-08 16:58:00,43.2,36.8,30.18,East,97,0.0,2.0,78,0.00,,,0.00,VWS V15.00,2014-02-08 23:58:00,
2014-02-08 17:00:00,42.3,36.3,30.21,North,6,0.0,1.0,79,0.00,,,0.00,VWS V15.00,2014-02-09 00:00:00,
2014-02-08 17:03:00,43.0,36.6,30.19,East,97,0.0,0.0,78,0.00,,,0.00,VWS V15.00,2014-02-09 00:03:00,
2014-02-08 17:08:00,42.9,36.8,30.19,East,97,0.0,0.0,79,0.00,,,0.00,VWS V15.00,2014-02-09 00:08:00,
2014-02-08 17:13:00,42.9,36.5,30.19,ESE,102,0.0,1.0,78,0.00,,,0.00,VWS V15.00,2014-02-09 00:13:00,
2014-02-08 17:18:00,42.8,36.4,30.19,East,101,0.0,1.0,78,0.00,,,0.00,VWS V15.00,2014-02-09 00:18:00,
2014-02-08 17:23:00,42.8,36.8,30.19,East,101,0.0,1.0,79,0.00,,,0.00,VWS V15.00,2014-02-09 00:23:00,
2014-02-08 17:28:00,42.7,36.7,30.19,East,101,0.0,1.0,79,0.00,,,0.00,VWS V15.00,2014-02-09 00:28:00,
2014-02-08 17:30:00,42.3,36.3,30.22,NNW,346,0.0,2.0,79,0.00,,,0.00,VWS V15.00,2014-02-09 00:30:00,
2014-02-08 17:33:00,42.5,36.8,30.20,ESE,102,0.0,1.0,80,0.00,,,0.00,VWS V15.00,2014-02-09 00:33:00,
2014-02-08 17:38:00,42.4,36.7,30.20,East,101,0.0,1.0,80,0.00,,,0.00,VWS V15.00,2014-02-09 00:38:00,
2014-02-08 17:42:00,42.2,36.8,30.20,East,101,0.0,1.0,81,0.00,,,0.00,VWS V15.00,2014-02-09 00:42:00,
2014-02-08 17:47:00,42.1,36.1,30.20,East,94,0.0,1.0,79,0.00,,,0.00,VWS V15.00,2014-02-09 00:47:00,
2014-02-08 17:52:00,42.2,36.2,30.20,NE,50,0.0,1.0,79,0.00,,,0.00,VWS V15.00,2014-02-09 00:52:00,
2014-02-08 17:57:00,42.3,36.3,30.21,North,6,1.0,1.0,79,0.00,,,0.00,VWS V15.00,2014-02-09 00:57:00,
2014-02-08 18:00:00,42.2,36.5,30.22,NNW,348,0.0,1.0,80,0.00,,,0.00,VWS V15.00,2014-02-09 01:00:00,
2014-02-08 18:02:00,42.3,36.3,30.22,North,6,1.0,1.0,79,0.00,,,0.00,VWS V15.00,2014-02-09 01:02:00,
2014-02-08 18:07:00,42.4,36.4,30.22,NNW,344,0.0,2.0,79,0.00,,,0.00,VWS V15.00,2014-02-09 01:07:00,
2014-02-08 18:12:00,42.4,36.4,30.22,NNW,345,0.0,2.0,79,0.00,,,0.00,VWS V15.00,2014-02-09 01:12:00,
2014-02-08 18:17:00,42.4,36.7,30.23,NNW,347,1.0,2.0,80,0.00,,,0.00,VWS V15.00,2014-02-09 01:17:00,
2014-02-08 18:22:00,42.4,36.4,30.23,NNW,346,0.0,2.0,79,0.00,,,0.00,VWS V15.00,2014-02-09 01:22:00,
2014-02-08 18:27:00,42.3,36.3,30.22,NNW,346,0.0,2.0,79,0.00,,,0.00,VWS V15.00,2014-02-09 01:27:00,
2014-02-08 18:30:00,42.0,36.6,30.23,NNE,12,0.0,2.0,81,0.00,,,0.00,VWS V15.00,2014-02-09 01:30:00,
2014-02-08 18:32:00,42.3,36.6,30.22,NNW,346,0.0,1.0,80,0.00,,,0.00,VWS V15.00,2014-02-09 01:32:00,
2014-02-08 18:37:00,42.2,36.8,30.21,NNW,346,0.0,1.0,81,0.00,,,0.00,VWS V15.00,2014-02-09 01:37:00,
2014-02-08 18:42:00,42.2,36.5,30.22,NNW,348,0.0,1.0,80,0.00,,,0.00,VWS V15.00,2014-02-09 01:42:00,
2014-02-08 18:47:00,42.2,36.5,30.22,NNW,347,0.0,1.0,80,0.00,,,0.00,VWS V15.00,2014-02-09 01:47:00,
2014-02-08 18:52:00,42.2,36.5,30.23,NNW,346,0.0,1.0,80,0.00,,,0.00,VWS V15.00,2014-02-09 01:52:00,
2014-02-08 18:57:00,42.2,36.5,30.22,NNW,348,0.0,1.0,80,0.00,,,0.00,VWS V15.00,2014-02-09 01:57:00,
2014-02-08 19:00:00,41.1,36.6,30.21,ESE,117,0.0,2.0,84,0.00,,,0.00,VWS V15.00,2014-02-09 02:00:00,
2014-02-08 19:02:00,42.2,36.5,30.23,NNW,348,1.0,1.0,80,0.00,,,0.00,VWS V15.00,2014-02-09 02:02:00,
2014-02-08 19:07:00,42.2,36.5,30.23,NNW,348,1.0,1.0,80,0.00,,,0.00,VWS V15.00,2014-02-09 02:07:00,
2014-02-08 19:12:00,42.2,36.5,30.23,NNW,345,1.0,2.0,80,0.00,,,0.00,VWS V15.00,2014-02-09 02:12:00,
2014-02-08 19:17:00,42.1,36.7,30.23,NNE,23,0.0,2.0,81,0.00,,,0.00,VWS V15.00,2014-02-09 02:17:00,
2014-02-08 19:22:00,42.0,36.6,30.23,NNE,23,1.0,2.0,81,0.00,,,0.00,VWS V15.00,2014-02-09 02:22:00,
2014-02-08 19:27:00,42.0,36.6,30.23,NNE,12,1.0,2.0,81,0.00,,,0.00,VWS V15.00,2014-02-09 02:27:00,
2014-02-08 19:30:00,40.9,36.5,30.20,ESE,117,0.0,1.0,84,0.00,,,0.00,VWS V15.00,2014-02-09 02:30:00,
2014-02-08 19:32:00,41.9,36.5,30.23,NNE,12,0.0,0.0,81,0.00,,,0.00,VWS V15.00,2014-02-09 02:32:00,
2014-02-08 19:37:00,41.9,36.5,30.23,North,6,0.0,2.0,81,0.00,,,0.00,VWS V15.00,2014-02-09 02:37:00,
2014-02-08 19:42:00,41.8,36.4,30.22,North,6,0.0,2.0,81,0.00,,,0.00,VWS V15.00,2014-02-09 02:42:00,
2014-02-08 19:47:00,41.8,37.0,30.22,North,8,0.0,2.0,83,0.00,,,0.00,VWS V15.00,2014-02-09 02:47:00,
2014-02-08 19:52:00,41.5,36.4,30.22,East,89,0.0,2.0,82,0.00,,,0.00,VWS V15.00,2014-02-09 02:52:00,
2014-02-08 19:57:00,41.2,36.4,30.22,ESE,117,0.0,2.0,83,0.00,,,0.00,VWS V15.00,2014-02-09 02:57:00,
2014-02-08 20:00:00,40.1,36.3,30.18,ESE,115,0.0,1.0,86,0.00,,,0.00,VWS V15.00,2014-02-09 03:00:00,
2014-02-08 20:02:00,41.1,36.6,30.21,ESE,117,1.0,1.0,84,0.00,,,0.00,VWS V15.00,2014-02-09 03:02:00,
2014-02-08 20:07:00,41.1,36.6,30.22,ESE,117,0.0,1.0,84,0.00,,,0.00,VWS V15.00,2014-02-09 03:07:00,
2014-02-08 20:12:00,41.0,36.5,30.21,ESE,117,0.0,1.0,84,0.00,,,0.00,VWS V15.00,2014-02-09 03:12:00,
2014-02-08 20:17:00,41.0,36.5,30.21,ESE,117,0.0,1.0,84,0.00,,,0.00,VWS V15.00,2014-02-09 03:17:00,
2014-02-08 20:22:00,40.9,36.5,30.21,ESE,117,0.0,1.0,84,0.00,,,0.00,VWS V15.00,2014-02-09 03:22:00,
2014-02-08 20:27:00,40.9,36.5,30.20,ESE,117,0.0,1.0,84,0.00,,,0.00,VWS V15.00,2014-02-09 03:27:00,
2014-02-08 20:30:00,38.3,35.1,30.17,ESE,117,0.0,1.0,88,0.00,,,0.00,VWS V15.00,2014-02-09 03:30:00,
2014-02-08 20:32:00,40.9,36.8,30.20,ESE,117,0.0,0.0,85,0.00,,,0.00,VWS V15.00,2014-02-09 03:32:00,
2014-02-08 20:37:00,40.8,36.7,30.20,ESE,116,0.0,1.0,85,0.00,,,0.00,VWS V15.00,2014-02-09 03:37:00,
2014-02-08 20:42:00,40.6,36.5,30.20,ESE,116,0.0,1.0,85,0.00,,,0.00,VWS V15.00,2014-02-09 03:42:00,
2014-02-08 20:47:00,40.6,36.5,30.19,ESE,116,0.0,1.0,85,0.00,,,0.00,VWS V15.00,2014-02-09 03:47:00,
2014-02-08 20:52:00,40.4,36.3,30.19,ESE,116,0.0,1.0,85,0.00,,,0.00,VWS V15.00,2014-02-09 03:52:00,
2014-02-08 20:57:00,40.3,36.5,30.18,ESE,116,1.0,1.0,86,0.00,,,0.00,VWS V15.00,2014-02-09 03:57:00,
2014-02-08 21:00:00,36.9,34.5,30.17,ESE,122,0.0,1.0,91,0.00,,,0.00,VWS V15.00,2014-02-09 04:00:00,
2014-02-08 21:02:00,40.0,36.2,30.18,ESE,116,0.0,0.0,86,0.00,,,0.00,VWS V15.00,2014-02-09 04:02:00,
2014-02-08 21:07:00,39.8,36.0,30.18,ESE,116,0.0,1.0,86,0.00,,,0.00,VWS V15.00,2014-02-09 04:07:00,
2014-02-08 21:12:00,39.5,35.7,30.18,ESE,117,0.0,1.0,86,0.00,,,0.00,VWS V15.00,2014-02-09 04:12:00,
2014-02-08 21:17:00,39.3,35.8,30.18,ESE,117,0.0,1.0,87,0.00,,,0.00,VWS V15.00,2014-02-09 04:17:00,
2014-02-08 21:22:00,39.1,35.6,30.18,ESE,117,0.0,1.0,87,0.00,,,0.00,VWS V15.00,2014-02-09 04:22:00,
2014-02-08 21:27:00,38.6,35.1,30.18,ESE,117,0.0,1.0,87,0.00,,,0.00,VWS V15.00,2014-02-09 04:27:00,
2014-02-08 21:30:00,36.5,34.7,30.18,ESE,121,0.0,1.0,93,0.00,,,0.00,VWS V15.00,2014-02-09 04:30:00,
2014-02-08 21:32:00,38.2,35.2,30.17,ESE,117,0.0,0.0,89,0.00,,,0.00,VWS V15.00,2014-02-09 04:32:00,
2014-02-08 21:37:00,37.9,35.0,30.17,ESE,121,0.0,1.0,89,0.00,,,0.00,VWS V15.00,2014-02-09 04:37:00,
2014-02-08 21:42:00,37.6,34.9,30.17,ESE,121,0.0,1.0,90,0.00,,,0.00,VWS V15.00,2014-02-09 04:42:00,
2014-02-08 21:47:00,37.4,34.7,30.17,ESE,121,0.0,1.0,90,0.00,,,0.00,VWS V15.00,2014-02-09 04:47:00,
2014-02-08 21:52:00,37.2,34.8,30.17,ESE,121,0.0,1.0,91,0.00,,,0.00,VWS V15.00,2014-02-09 04:52:00,
2014-02-08 21:57:00,37.0,34.6,30.17,ESE,122,0.0,1.0,91,0.00,,,0.00,VWS V15.00,2014-02-09 04:57:00,
2014-02-08 22:00:00,37.7,35.6,30.18,NE,46,0.0,1.0,92,0.00,,,0.00,VWS V15.00,2014-02-09 05:00:00,
2014-02-08 22:01:00,36.9,34.5,30.17,ESE,122,0.0,0.0,91,0.00,,,0.00,VWS V15.00,2014-02-09 05:01:00,
2014-02-08 22:06:00,36.6,34.2,30.17,ESE,122,0.0,1.0,91,0.00,,,0.00,VWS V15.00,2014-02-09 05:06:00,
2014-02-08 22:11:00,36.3,34.2,30.18,ESE,122,0.0,1.0,92,0.00,,,0.00,VWS V15.00,2014-02-09 05:11:00,
2014-02-08 22:16:00,36.2,34.1,30.19,ESE,122,0.0,1.0,92,0.00,,,0.00,VWS V15.00,2014-02-09 05:16:00,
2014-02-08 22:21:00,36.3,34.2,30.19,ESE,122,0.0,1.0,92,0.00,,,0.00,VWS V15.00,2014-02-09 05:21:00,
2014-02-08 22:26:00,36.4,34.6,30.18,ESE,122,0.0,1.0,93,0.00,,,0.00,VWS V15.00,2014-02-09 05:26:00,
2014-02-08 22:30:00,38.6,36.5,30.18,NE,46,0.0,0.0,92,0.00,,,0.00,VWS V15.00,2014-02-09 05:30:00,
2014-02-08 22:31:00,36.5,34.7,30.18,ESE,121,0.0,0.0,93,0.00,,,0.00,VWS V15.00,2014-02-09 05:31:00,
2014-02-08 22:36:00,36.7,34.9,30.18,ESE,121,0.0,0.0,93,0.00,,,0.00,VWS V15.00,2014-02-09 05:36:00,
2014-02-08 22:41:00,36.8,34.7,30.18,NE,46,1.0,1.0,92,0.00,,,0.00,VWS V15.00,2014-02-09 05:41:00,
2014-02-08 22:46:00,37.1,35.3,30.19,NE,47,1.0,1.0,93,0.00,,,0.00,VWS V15.00,2014-02-09 05:46:00,
2014-02-08 22:51:00,37.5,35.4,30.18,NE,46,0.0,1.0,92,0.00,,,0.00,VWS V15.00,2014-02-09 05:51:00,
2014-02-08 22:56:00,37.7,35.6,30.18,NE,46,0.0,1.0,92,0.00,,,0.00,VWS V15.00,2014-02-09 05:56:00,
2014-02-08 23:00:00,38.8,36.1,30.17,NE,49,0.0,1.0,90,0.00,,,0.00,VWS V15.00,2014-02-09 06:00:00,
2014-02-08 23:01:00,37.7,35.6,30.18,NE,46,0.0,0.0,92,0.00,,,0.00,VWS V15.00,2014-02-09 06:01:00,
2014-02-08 23:06:00,37.9,35.8,30.18,NE,47,0.0,0.0,92,0.00,,,0.00,VWS V15.00,2014-02-09 06:06:00,
2014-02-08 23:11:00,38.1,36.0,30.18,NE,46,0.0,0.0,92,0.00,,,0.00,VWS V15.00,2014-02-09 06:11:00,
2014-02-08 23:16:00,38.2,36.1,30.18,NE,46,0.0,0.0,92,0.00,,,0.00,VWS V15.00,2014-02-09 06:16:00,
2014-02-08 23:21:00,38.3,36.2,30.18,NE,47,0.0,0.0,92,0.00,,,0.00,VWS V15.00,2014-02-09 06:21:00,
2014-02-08 23:26:00,38.5,36.4,30.18,NE,47,0.0,0.0,92,0.00,,,0.00,VWS V15.00,2014-02-09 06:26:00,
2014-02-08 23:30:00,38.5,36.1,30.17,NE,49,0.0,1.0,91,0.00,,,0.00,VWS V15.00,2014-02-09 06:30:00,
2014-02-08 23:31:00,38.6,36.5,30.18,NE,47,0.0,0.0,92,0.00,,,0.00,VWS V15.00,2014-02-09 06:31:00,
2014-02-08 23:36:00,38.5,36.1,30.18,NE,47,0.0,0.0,91,0.00,,,0.00,VWS V15.00,2014-02-09 06:36:00,
2014-02-08 23:41:00,38.6,36.2,30.18,NE,47,0.0,1.0,91,0.00,,,0.00,VWS V15.00,2014-02-09 06:41:00,
2014-02-08 23:46:00,38.7,36.3,30.18,NE,46,0.0,1.0,91,0.00,,,0.00,VWS V15.00,2014-02-09 06:46:00,
2014-02-08 23:51:00,38.8,36.4,30.18,NE,48,0.0,1.0,91,0.00,,,0.00,VWS V15.00,2014-02-09 06:51:00,
2014-02-08 23:56:00,38.8,36.4,30.18,NE,48,0.0,1.0,91,0.00,,,0.00,VWS V15.00,2014-02-09 06:56:00,